Regional Weather Roundup
Issued by NWS Newport/Morehead, NC

Home | Current Version | Previous Version | Text Only | Print | Product List | Glossary On
Versions: 1 2 3 4 5 6 7 8 9 10 11 12 13 14 15 16 17 18 19 20 21 22 23 24 25 26 27 28 29 30 31 32 33 34 35 36 37 38 39 40 41 42 43 44 45 46 47 48 49 50
000
ASUS42 KMHX 210925
RWRMHX
WEATHER ROUNDUP FOR EASTERN NORTH CAROLINA
NATIONAL WEATHER SERVICE NEWPORT/MOREHEAD CITY NC
500 AM EDT MON AUG 21 2017

NOTE: "FAIR" INDICATES FEW OR NO CLOUDS BELOW 12,000 FEET
WITH NO SIGNIFICANT WEATHER AND/OR OBSTRUCTIONS TO VISIBILITY

NCZ015>017-031-032-045>047-102-103-211000-
NORTH COAST

CITY           SKY/WX    TMP DP  RH WIND       PRES   REMARKS
EDENTON        FOG       74  72  94 CALM      30.18R VSB 1
ELIZABETH CITY PTCLDY    76  76 100 NE7       30.18R
KITTY HAWK     CLOUDY    76  76 100 CALM      30.17R FOG
MANTEO         CLOUDY    75  75  98 NE3       30.18S

$$

NCZ045>047-081-094-103-104-211000-
CENTRAL COAST

CITY           SKY/WX    TMP DP  RH WIND       PRES   REMARKS
FRISCO         CLOUDY    78  78 100 E3        30.16R

$$

NCZ095-097-098-100-101-211000-
SOUTHERN COAST

CITY           SKY/WX    TMP DP  RH WIND       PRES   REMARKS
BEAUFORT       CLOUDY    77  77 100 NE5       30.15S
CEDAR ISLAND   NOT AVBL
JACKSONVILLE   CLOUDY    76  76 100 N3        30.15S
PINEY ISLAND   FOG      N/A N/A N/A CALM      30.16S VSB 3/4
WILMINGTON     CLOUDY    76  75  97 CALM      30.14S


$$

NCZ011>013-027>030-043-044-078>080-089-090>093-098-211000-
COASTAL PLAIN

CITY           SKY/WX    TMP DP  RH WIND       PRES   REMARKS
AHOSKIE        NOT AVBL
CLINTON        CLOUDY    72  72 100 CALM      30.17R
ELIZABETHTOWN  NOT AVBL
GOLDSBORO      CLEAR     75  72  92 CALM      30.17R FOG
GREENVILLE     FOG       72  72 100 CALM      30.18R VSB 1/4
HAVELOCK       CLOUDY    74  72  93 CALM      30.17R
KENANSVILLE    FOG       70  70 100 CALM      30.17R VSB<1/4
KINSTON        FOG       73  72  99 CALM      30.18R VSB 1/4
NEW BERN       FOG       72  72 100 CALM      30.17S VSB 1/4
RICHLANDS      FOG       72  71  97 CALM      30.17R VSB 1/2
ROCKY MOUNT    PTCLDY    70  70 100 CALM      30.18R FOG
WASHINGTON     FOG       72  71  98 CALM      30.18R VSB 3/4
WHITEVILLE     CLOUDY    75  74  97 CALM      30.15R FOG

$$

AMZ130-135-150-152-154-156-158-170-250-252-270-ANZ085-086-088-633-658-670-211000-
MARINE OBSERVATIONS

STATION/POSITION TIME  TEMP    WIND        PRES    WAVE   SWELL
                       AIR SEA DIR/SP/G            HT/PER HT/PER
                 (UTC) (F)     (DEG/KT/KT) (MB)    (FT/S) (FT/S)
CHESAPEAKE LIGHT NOT AVBL
64 E VA BEACH    0850   78 79   60/  8/  8 1022.2    2/ 8   2/ 8
DUCK             0900   78 78   40/  6/  6 1021.5
2 E DUCK         0900      79                N/A     2/ 8
OREGON INLET     0900   78 79   50/  5/  6 1021.5
13E OREGON INLT  0818      79                N/A     2/ 8   2/ 8
HATTERAS CG      0900   79 78   70/  4/  5 1021.3
DIAMOND BUOY     0850   82 85   30/  8/ 10 1021.1    2/ 8   2/ 8
CAPE LOOKOUT     0900   81      30/  5/  6 1020.7
BEAUFORT LAB     0900   78 81   30/  3/  5 1020.5
30 SE NEW RVR IN 0808   80 84  200/  4/  6 1020.9
30 SE NEW RVR IN 0843      84                N/A     2/ 8
27 SE WRIGHTSVLE 0808   83 84   30/  2/  6 1020.5
5 SE WRIGHTSVLE  NOT AVBL
225 S CAPE HAT   0850   83 84  160/  8/ 10 1021.0    3/ 9   2/ 9
41 SE CHARLESTON 0910   83 85  320/  2/  4 1019.5

$$



USA.gov is the U.S. government's official web portal to all federal, state and local government web resources and services.